Location: Cahas Mountain Overlook
(37.0833°N, 80.1000°W)
Time: 04:10:46
(UTC-05:00)

Transit 4A - All Passes

Search period start: 28 January 2022 00:00
Search period end: 07 February 2022 00:00
Orbit: 863 x 981 km, 66.8° (Epoch: 27 January)

Date Brightness Start Highest point End Pass type
(mag) Time Alt. Az. Time Alt. Az. Time Alt. Az.
28 Jan - 05:45:07 10° SSE 05:50:16 31° ESE 05:55:33 10° NE visible
28 Jan - 07:30:50 10° WSW 07:36:26 39° NW 07:42:13 10° NNE daylight
28 Jan - 14:49:34 10° N 14:54:54 27° NE 15:00:11 10° ESE daylight
28 Jan - 16:35:22 10° NW 16:41:35 54° WSW 16:47:46 10° S daylight
29 Jan - 05:53:41 10° S 05:59:21 48° ESE 06:05:15 10° NE visible
29 Jan - 07:40:52 10° WSW 07:45:57 28° NW 07:51:11 10° N daylight
29 Jan - 14:58:31 10° NNW 15:04:26 38° NE 15:10:19 10° ESE daylight
29 Jan - 16:44:58 10° NW 16:50:43 36° WSW 16:56:27 10° S daylight
30 Jan - 06:02:36 10° SSW 06:08:33 74° ESE 06:14:43 10° NNE visible
30 Jan - 07:51:16 10° W 07:55:33 20° NW 07:59:58 10° N daylight
30 Jan - 13:24:26 10° NNE 13:26:01 11° NE 13:27:37 10° NE daylight
30 Jan - 15:07:35 10° NNW 15:13:52 55° ENE 15:20:06 10° SE daylight
30 Jan - 16:54:54 10° NW 16:59:48 24° WSW 17:04:41 10° SSW daylight
31 Jan - 04:29:08 10° SE 04:32:17 15° ESE 04:35:28 10° ENE visible
31 Jan - 06:11:50 10° SSW 06:17:49 75° WNW 06:24:02 10° NNE visible
31 Jan - 08:02:13 10° WNW 08:05:17 14° NW 08:08:25 10° N daylight
31 Jan - 13:32:10 10° N 13:35:50 15° NE 13:39:29 10° ENE daylight
31 Jan - 15:16:47 10° NNW 15:23:14 80° ENE 15:29:36 10° SSE daylight
31 Jan - 17:05:23 10° WNW 17:08:48 15° WSW 17:12:11 10° SW daylight
01 Feb - 04:36:40 10° SSE 04:41:15 23° ESE 04:45:58 10° NE visible
01 Feb - 06:21:20 10° SW 06:27:10 51° WNW 06:33:12 10° NNE visible
01 Feb - 13:40:44 10° N 13:45:31 22° NE 13:50:19 10° E daylight
01 Feb - 15:26:07 10° NNW 15:32:30 71° WSW 15:38:49 10° SSE daylight
02 Feb - 04:44:55 10° S 04:50:18 36° ESE 04:55:52 10° NE visible
02 Feb - 06:31:10 10° WSW 06:36:37 35° NW 06:42:16 10° NNE visible
02 Feb - 13:49:34 10° N 13:55:08 30° NE 14:00:40 10° ESE daylight
02 Feb - 15:35:35 10° NW 15:41:41 47° WSW 15:47:43 10° S daylight
03 Feb - 04:53:37 10° S 04:59:26 56° ESE 05:05:28 10° NE visible
03 Feb - 06:41:19 10° WSW 06:46:10 24° NW 06:51:11 10° N visible
03 Feb - 13:58:33 10° NNW 14:04:38 43° NE 14:10:39 10° SE daylight
03 Feb - 15:45:17 10° NW 15:50:48 31° WSW 15:56:15 10° SSW daylight
04 Feb - 03:22:34 10° ESE 03:23:21 10° E 03:24:07 10° E visible
04 Feb - 05:02:39 10° SSW 05:08:39 85° ESE 05:14:53 10° NNE visible
04 Feb - 06:51:52 10° W 06:55:50 17° NW 06:59:52 10° N visible
04 Feb - 12:23:48 10° NNE 12:26:21 12° NE 12:28:53 10° ENE daylight
04 Feb - 14:07:40 10° NNW 14:14:02 62° ENE 14:20:20 10° SE daylight
04 Feb - 15:55:21 10° WNW 15:59:50 20° WSW 16:04:17 10° SSW daylight
05 Feb - 03:28:29 10° SE 03:32:17 18° ESE 03:36:09 10° ENE visible
05 Feb - 05:11:59 10° SW 05:17:57 66° WNW 05:24:09 10° NNE visible
05 Feb - 07:03:07 10° WNW 07:05:35 12° NW 07:08:05 10° NNW daylight
05 Feb - 12:32:00 10° N 12:36:07 17° NE 12:40:13 10° E daylight
05 Feb - 14:16:55 10° NNW 14:23:22 90° S 14:29:44 10° SSE daylight
05 Feb - 16:06:18 10° WNW 16:08:48 12° W 16:11:18 10° SW daylight
06 Feb - 03:36:20 10° SSE 03:41:17 27° ESE 03:46:22 10° NE visible
06 Feb - 05:21:36 10° SW 05:27:20 44° NW 05:33:17 10° NNE visible
06 Feb - 12:40:41 10° N 12:45:47 24° NE 12:50:52 10° ESE daylight
06 Feb - 14:26:18 10° NW 14:32:37 61° WSW 14:38:50 10° SSE daylight
